Location: Владивосток
(43.1151°N, 131.8856°E)
Time: 05:16:15
(UTC+10:00)

CUBEBUG 2 - Pass Details

Date: 04 July 2022
Orbit: 584 x 693 km, 97.7° (Epoch: 07 August)

Event Time Altitude Azimuth Distance (km) Brightness Sun altitude
Rises 03:39:36 0° 21° (NNE) 2,842 ? -16.3°
Reaches altitude 10° 03:41:53 10° 30° (NNE) 1,947 ? -16.0°
Maximum altitude 03:45:48 36° 98° (E) 966 ? -15.6°
Enters shadow 03:49:32 11° 164° (SSE) 1,890 ? -15.2°
